QPF
0.04 0.03 0.03 0.03 0.03 0.03 0.02 0.01 0.01 0.02 0.02 0.02 0.02 0.02 0.02 0.03 0.04 0.03 0.02 0.01 0.01 0.01 0.01 0.01 0.02 0.02 0.02 0.03 0.05 0.06 0.05 0.04 0.03 0.02 0.01 0.01 0.00 0.00 0.01 0.00 0.00 0.01 0.02
0.03 0.02 0.03 0.03 0.02 0.02 0.01 0.01 0.01 0.01 0.01 0.01 0.01 0.02 0.03 0.03 0.03 0.02 0.01 0.01 0.01 0.01 0.01 0.02 0.02 0.01 0.02 0.02 0.03 0.05 0.04 0.03 0.02 0.01 0.01 0.01 0.01 0.01 0.00 0.01 0.01 0.01 0.01
0.05 0.02 0.02 0.02 0.03 0.02 0.01 0.01 0.01 0.01 0.01 0.00 0.00 0.01 0.03 0.05 0.04 0.02 0.01 0.01 0.01 0.01 0.02 0.03 0.02 0.01 0.01 0.02 0.02 0.03 0.03 0.02 0.02 0.01 0.01 0.01 0.02 0.02 0.01 0.01 0.02 0.01 0.01
0.02 0.01 0.01 0.02 0.02 0.01 0.01 0.00 0.00 0.00 0.00 0.00 0.00 0.00 0.01 0.02 0.01 0.01 0.01 0.01 0.01 0.01 0.01 0.01 0.01 0.02 0.02 0.02 0.02 0.03 0.04 0.03 0.02 0.02 0.01 0.01 0.02 0.02 0.02 0.02 0.01 0.01 0.01
0.01 0.01 0.01 0.02 0.02 0.01 0.01 0.00 0.01 0.01 0.00 0.00 0.00 0.00 0.01 0.01 0.02 0.02 0.02 0.02 0.01 0.01 0.00 0.01 0.01 0.02 0.03 0.02 0.02 0.02 0.03 0.03 0.02 0.02 0.02 0.02 0.01 0.01 0.01 0.01 0.01 0.01 0.00
0.01 0.02 0.02 0.02 0.02 0.01 0.01 0.01 0.01 0.01 0.01 0.00 0.00 0.01 0.01 0.01 0.02 0.02 0.02 0.01 0.01 0.01 0.01 0.01 0.01 0.01 0.01 0.02 0.02 0.02 0.02 0.02 0.02 0.01 0.01 0.01 0.01 0.01 0.01 0.01 0.02 0.01 0.01
0.03 0.02 0.02 0.02 0.01 0.01 0.00 0.00 0.01 0.01 0.01 0.00 0.00 0.00 0.01 0.01 0.01 0.01 0.00 0.01 0.00 0.01 0.01 0.02 0.02 0.01 0.01 0.01 0.01 0.02 0.03 0.03 0.02 0.02 0.02 0.01 0.01 0.01 0.01 0.01 0.02 0.01 0.01
0.03 0.02 0.03 0.02 0.01 0.01 0.01 0.01 0.02 0.02 0.02 0.01 0.01 0.00 0.01 0.01 0.00 0.00 0.00 0.00 0.00 0.00 0.01 0.01 0.01 0.01 0.00 0.01 0.01 0.01 0.02 0.03 0.02 0.02 0.01 0.01 0.01 0.01 0.01 0.01 0.01 0.02 0.02
0.05 0.03 0.02 0.03 0.02 0.02 0.01 0.02 0.04 0.05 0.04 0.02 0.01 0.01 0.01 0.01 0.01 0.01 0.00 0.00 0.00 0.00 0.00 0.00 0.01 0.01 0.01 0.01 0.01 0.01 0.02 0.02 0.02 0.02 0.01 0.01 0.00 0.01 0.01 0.01 0.01 0.02 0.02
0.06 0.06 0.04 0.03 0.02 0.02 0.03 0.03 0.05 0.05 0.05 0.03 0.03 0.02 0.02 0.02 0.01 0.01 0.01 0.01 0.01 0.01 0.01 0.01 0.01 0.01 0.01 0.01 0.00 0.00 0.01 0.02 0.02 0.02 0.02 0.01 0.01 0.01 0.01 0.01 0.01 0.01 0.01
0.07 0.07 0.05 0.05 0.05 0.05 0.05 0.05 0.06 0.07 0.08 0.06 0.06 0.06 0.05 0.04 0.03 0.02 0.02 0.01 0.01 0.01 0.00 0.01 0.02 0.02 0.01 0.01 0.01 0.00 0.01 0.01 0.02 0.03 0.02 0.01 0.01 0.01 0.01 0.01 0.01 0.01 0.01
0.06 0.10 0.11 0.09 0.06 0.05 0.06 0.06 0.07 0.08 0.09 0.10 0.11 0.12 0.10 0.07 0.05 0.03 0.02 0.01 0.01 0.00 0.00 0.00 0.01 0.03 0.02 0.01 0.01 0.02 0.02 0.02 0.02 0.02 0.02 0.02 0.01 0.01 0.01 0.01 0.01 0.01 0.01
0.09 0.11 0.14 0.12 0.08 0.06 0.07 0.07 0.08 0.09 0.09 0.09 0.10 0.10 0.09 0.09 0.08 0.06 0.04 0.02 0.01 0.01 0.00 0.00 0.01 0.01 0.03 0.04 0.04 0.04 0.03 0.03 0.02 0.02 0.01 0.01 0.01 0.01 0.01 0.01 0.01 0.01 0.01
0.09 0.08 0.09 0.09 0.08 0.08 0.07 0.08 0.09 0.08 0.08 0.09 0.10 0.12 0.13 0.14 0.12 0.09 0.05 0.03 0.02 0.02 0.01 0.01 0.01 0.01 0.01 0.03 0.04 0.05 0.05 0.04 0.03 0.02 0.01 0.01 0.01 0.01 0.02 0.02 0.03 0.02 0.01
0.10 0.07 0.07 0.07 0.07 0.05 0.06 0.07 0.08 0.08 0.09 0.10 0.10 0.10 0.09 0.07 0.05 0.04 0.03 0.02 0.02 0.01 0.01 0.01 0.01 0.01 0.01 0.01 0.01 0.02 0.04 0.04 0.03 0.03 0.02 0.02 0.01 0.01 0.02 0.02 0.02 0.02 0.01
0.06 0.07 0.07 0.07 0.06 0.05 0.05 0.06 0.08 0.05 0.05 0.06 0.05 0.05 0.05 0.05 0.04 0.03 0.03 0.02 0.02 0.01 0.01 0.01 0.01 0.01 0.01 0.01 0.01 0.01 0.02 0.02 0.02 0.02 0.03 0.02 0.02 0.02 0.02 0.02 0.02 0.01 0.01
0.08 0.08 0.07 0.06 0.06 0.06 0.06 0.04 0.04 0.04 0.04 0.05 0.05 0.05 0.04 0.03 0.02 0.03 0.03 0.02 0.02 0.01 0.01 0.01 0.01 0.01 0.01 0.01 0.01 0.01 0.01 0.01 0.02 0.02 0.02 0.02 0.02 0.02 0.02 0.02 0.01 0.01 0.01
0.08 0.08 0.07 0.07 0.06 0.05 0.04 0.03 0.03 0.04 0.04 0.04 0.04 0.02 0.02 0.01 0.01 0.01 0.01 0.01 0.01 0.01 0.01 0.01 0.01 0.01 0.01 0.01 0.01 0.01 0.01 0.01 0.01 0.01 0.01 0.02 0.02 0.02 0.02 0.02 0.02 0.02 0.02
0.05 0.05 0.05 0.04 0.03 0.02 0.02 0.02 0.03 0.03 0.02 0.02 0.01 0.02 0.02 0.01 0.01 0.01 0.01 0.01 0.00 0.01 0.01 0.01 0.01 0.01 0.01 0.01 0.01 0.01 0.01 0.01 0.01 0.01 0.01 0.01 0.02 0.02 0.02 0.02 0.02 0.02 0.03
0.03 0.04 0.04 0.03 0.03 0.02 0.02 0.02 0.02 0.02 0.02 0.02 0.02 0.02 0.02 0.02 0.02 0.02 0.01 0.01 0.01 0.01 0.01 0.01 0.01 0.01 0.01 0.01 0.01 0.02 0.02 0.02 0.02 0.02 0.02 0.02 0.02 0.02 0.02 0.02 0.02 0.02 0.02
0.03 0.04 0.04 0.04 0.04 0.04 0.03 0.02 0.02 0.02 0.02 0.01 0.01 0.02 0.02 0.02 0.02 0.01 0.01 0.01 0.01 0.01 0.01 0.01 0.01 0.01 0.01 0.02 0.02 0.02 0.02 0.03 0.03 0.03 0.03 0.02 0.02 0.02 0.02 0.02 0.02 0.02 0.02
0.04 0.04 0.04 0.04 0.04 0.04 0.03 0.03 0.02 0.01 0.01 0.01 0.01 0.01 0.02 0.01 0.01 0.01 0.01 0.01 0.01 0.01 0.01 0.01 0.01 0.01 0.01 0.01 0.01 0.01 0.01 0.02 0.02 0.02 0.02 0.02 0.01 0.02 0.02 0.02 0.02 0.02 0.02
0.02 0.02 0.03 0.04 0.04 0.03 0.03 0.02 0.02 0.02 0.01 0.01 0.01 0.01 0.01 0.01 0.01 0.01 0.02 0.02 0.01 0.01 0.01 0.01 0.01 0.00 0.01 0.01 0.01 0.01 0.01 0.01 0.01 0.01 0.01 0.01 0.02 0.02 0.02 0.02 0.02 0.02 0.02
0.01 0.02 0.01 0.01 0.01 0.01 0.01 0.01 0.01 0.01 0.01 0.01 0.01 0.01 0.01 0.01 0.01 0.01 0.01 0.01 0.01 0.01 0.01 0.01 0.01 0.01 0.02 0.01 0.01 0.01 0.01 0.01 0.01 0.01 0.02 0.02 0.02 0.02 0.02 0.02 0.01 0.01 0.01
0.01 0.01 0.01 0.01 0.01 0.01 0.01 0.01 0.01 0.01 0.01 0.01 0.01 0.01 0.01 0.01 0.00 0.00 0.01 0.01 0.01 0.01 0.01 0.01 0.02 0.02 0.02 0.02 0.01 0.01 0.02 0.02 0.02 0.02 0.02 0.01 0.02 0.02 0.02 0.02 0.02 0.02 0.02
0.01 0.01 0.01 0.01 0.01 0.01 0.01 0.01 0.02 0.02 0.01 0.01 0.01 0.01 0.01 0.02 0.02 0.01 0.01 0.01 0.01 0.01 0.01 0.02 0.02 0.02 0.02 0.03 0.03 0.03 0.03 0.03 0.02 0.02 0.02 0.02 0.02 0.02 0.02 0.02 0.01 0.02 0.02
MSLP
1012.72 1012.84 1013.02 1013.19 1013.32 1013.37 1013.35 1013.28 1013.17 1013.06 1012.98 1012.95 1012.95 1012.98 1013.01 1013.03 1013.01 1012.97 1012.92 1012.86 1012.84 1012.87 1012.97 1013.14 1013.38 1013.65 1013.95 1014.25 1014.54 1014.82 1015.08 1015.35 1015.63 1015.92 1016.24 1016.56 1016.87 1017.16 1017.41 1017.60 1017.74 1017.83 1017.89
1012.36 1012.42 1012.53 1012.65 1012.74 1012.78 1012.76 1012.70 1012.63 1012.57 1012.54 1012.56 1012.61 1012.69 1012.77 1012.82 1012.84 1012.81 1012.76 1012.69 1012.63 1012.61 1012.65 1012.75 1012.91 1013.13 1013.40 1013.69 1014.00 1014.32 1014.66 1015.01 1015.37 1015.74 1016.12 1016.48 1016.83 1017.14 1017.39 1017.59 1017.74 1017.85 1017.94
1012.13 1012.13 1012.18 1012.24 1012.27 1012.27 1012.23 1012.16 1012.10 1012.06 1012.06 1012.12 1012.21 1012.34 1012.45 1012.55 1012.60 1012.60 1012.56 1012.48 1012.41 1012.35 1012.34 1012.38 1012.49 1012.66 1012.88 1013.15 1013.46 1013.80 1014.17 1014.57 1014.98 1015.41 1015.83 1016.23 1016.60 1016.93 1017.20 1017.42 1017.60 1017.74 1017.88
1012.04 1011.99 1011.97 1011.96 1011.92 1011.86 1011.76 1011.66 1011.57 1011.53 1011.54 1011.61 1011.74 1011.89 1012.05 1012.18 1012.26 1012.29 1012.27 1012.21 1012.14 1012.07 1012.03 1012.04 1012.10 1012.22 1012.40 1012.64 1012.93 1013.26 1013.63 1014.04 1014.46 1014.90 1015.34 1015.76 1016.15 1016.50 1016.80 1017.05 1017.26 1017.46 1017.64
1012.07 1011.97 1011.88 1011.78 1011.66 1011.50 1011.32 1011.16 1011.02 1010.95 1010.95 1011.02 1011.16 1011.33 1011.52 1011.68 1011.80 1011.87 1011.89 1011.86 1011.80 1011.74 1011.70 1011.69 1011.73 1011.82 1011.97 1012.16 1012.41 1012.70 1013.04 1013.41 1013.82 1014.24 1014.67 1015.09 1015.49 1015.85 1016.18 1016.47 1016.72 1016.97 1017.21
1012.18 1012.02 1011.84 1011.64 1011.40 1011.13 1010.85 1010.60 1010.40 1010.27 1010.24 1010.31 1010.45 1010.64 1010.85 1011.05 1011.21 1011.33 1011.39 1011.41 1011.39 1011.36 1011.34 1011.34 1011.37 1011.44 1011.55 1011.70 1011.90 1012.13 1012.41 1012.73 1013.08 1013.46 1013.86 1014.26 1014.65 1015.03 1015.37 1015.70 1016.00 1016.29 1016.58
1012.28 1012.04 1011.77 1011.45 1011.07 1010.67 1010.27 1009.92 1009.65 1009.47 1009.41 1009.46 1009.61 1009.82 1010.05 1010.29 1010.50 1010.67 1010.79 1010.86 1010.90 1010.92 1010.94 1010.97 1011.01 1011.07 1011.16 1011.27 1011.41 1011.58 1011.78 1012.03 1012.31 1012.63 1012.98 1013.34 1013.72 1014.09 1014.45 1014.80 1015.13 1015.46 1015.79
1012.29 1011.97 1011.58 1011.12 1010.60 1010.07 1009.55 1009.11 1008.76 1008.54 1008.46 1008.51 1008.66 1008.89 1009.16 1009.44 1009.70 1009.92 1010.10 1010.24 1010.35 1010.43 1010.51 1010.58 1010.65 1010.72 1010.79 1010.88 1010.97 1011.08 1011.21 1011.38 1011.58 1011.83 1012.12 1012.44 1012.78 1013.14 1013.49 1013.85 1014.20 1014.54 1014.88
1012.17 1011.74 1011.22 1010.62 1009.97 1009.32 1008.70 1008.18 1007.78 1007.54 1007.45 1007.50 1007.68 1007.94 1008.25 1008.57 1008.87 1009.15 1009.39 1009.59 1009.77 1009.92 1010.06 1010.18 1010.30 1010.40 1010.48 1010.55 1010.61 1010.68 1010.75 1010.85 1010.99 1011.16 1011.39 1011.65 1011.94 1012.26 1012.59 1012.93 1013.26 1013.59 1013.92
1011.86 1011.33 1010.70 1009.98 1009.22 1008.47 1007.79 1007.22 1006.80 1006.56 1006.48 1006.56 1006.77 1007.05 1007.39 1007.75 1008.09 1008.41 1008.71 1008.97 1009.21 1009.43 1009.63 1009.82 1009.99 1010.13 1010.25 1010.33 1010.39 1010.43 1010.46 1010.51 1010.58 1010.69 1010.85 1011.04 1011.28 1011.54 1011.82 1012.10 1012.38 1012.66 1012.95
1011.39 1010.77 1010.05 1009.25 1008.43 1007.63 1006.92 1006.35 1005.95 1005.72 1005.68 1005.78 1006.02 1006.34 1006.70 1007.08 1007.45 1007.80 1008.12 1008.43 1008.73 1009.01 1009.28 1009.54 1009.77 1009.97 1010.13 1010.25 1010.32 1010.36 1010.38 1010.39 1010.41 1010.47 1010.55 1010.67 1010.82 1011.00 1011.20 1011.40 1011.60 1011.80 1012.01
1010.76 1010.10 1009.34 1008.51 1007.68 1006.89 1006.21 1005.68 1005.32 1005.14 1005.14 1005.28 1005.54 1005.87 1006.24 1006.62 1006.99 1007.35 1007.70 1008.04 1008.37 1008.71 1009.04 1009.37 1009.67 1009.94 1010.16 1010.33 1010.43 1010.49 1010.51 1010.50 1010.48 1010.48 1010.49 1010.52 1010.58 1010.66 1010.74 1010.84 1010.93 1011.03 1011.13
1010.03 1009.36 1008.62 1007.83 1007.06 1006.35 1005.75 1005.30 1005.01 1004.90 1004.94 1005.11 1005.38 1005.70 1006.06 1006.42 1006.77 1007.12 1007.47 1007.82 1008.19 1008.57 1008.96 1009.35 1009.72 1010.06 1010.35 1010.57 1010.72 1010.80 1010.82 1010.80 1010.75 1010.69 1010.62 1010.57 1010.52 1010.48 1010.44 1010.40 1010.37 1010.34 1010.33
1009.20 1008.60 1007.93 1007.25 1006.60 1006.01 1005.54 1005.21 1005.03 1004.99 1005.08 1005.27 1005.53 1005.83 1006.15 1006.48 1006.80 1007.12 1007.45 1007.81 1008.19 1008.60 1009.04 1009.49 1009.92 1010.32 1010.67 1010.94 1011.13 1011.24 1011.27 1011.24 1011.15 1011.04 1010.90 1010.75 1010.59 1010.42 1010.26 1010.09 1009.92 1009.76 1009.62
1008.31 1007.81 1007.28 1006.76 1006.28 1005.87 1005.57 1005.37 1005.31 1005.35 1005.48 1005.69 1005.94 1006.21 1006.48 1006.76 1007.03 1007.32 1007.64 1007.99 1008.38 1008.82 1009.30 1009.79 1010.27 1010.72 1011.11 1011.42 1011.64 1011.76 1011.79 1011.74 1011.62 1011.45 1011.24 1011.00 1010.73 1010.46 1010.17 1009.87 1009.57 1009.28 1009.02
1007.35 1006.98 1006.63 1006.30 1006.03 1005.82 1005.71 1005.68 1005.73 1005.86 1006.04 1006.26 1006.50 1006.74 1006.97 1007.20 1007.44 1007.70 1008.00 1008.35 1008.76 1009.21 1009.71 1010.23 1010.74 1011.22 1011.63 1011.96 1012.19 1012.31 1012.32 1012.25 1012.09 1011.86 1011.58 1011.26 1010.91 1010.54 1010.14 1009.74 1009.33 1008.94 1008.57
1006.33 1006.11 1005.93 1005.82 1005.76 1005.77 1005.84 1005.98 1006.16 1006.39 1006.63 1006.87 1007.10 1007.32 1007.53 1007.74 1007.96 1008.21 1008.51 1008.86 1009.28 1009.75 1010.25 1010.78 1011.30 1011.78 1012.19 1012.51 1012.72 1012.82 1012.81 1012.70 1012.50 1012.22 1011.89 1011.51 1011.09 1010.64 1010.17 1009.68 1009.19 1008.71 1008.25
1005.27 1005.19 1005.19 1005.27 1005.41 1005.62 1005.88 1006.18 1006.49 1006.81 1007.12 1007.40 1007.66 1007.89 1008.11 1008.32 1008.55 1008.81 1009.12 1009.48 1009.91 1010.39 1010.90 1011.42 1011.92 1012.37 1012.75 1013.03 1013.21 1013.27 1013.22 1013.06 1012.82 1012.51 1012.13 1011.70 1011.24 1010.74 1010.21 1009.67 1009.12 1008.57 1008.03
1004.25 1004.28 1004.42 1004.66 1004.98 1005.36 1005.78 1006.22 1006.66 1007.08 1007.47 1007.81 1008.12 1008.40 1008.65 1008.90 1009.16 1009.46 1009.80 1010.19 1010.63 1011.10 1011.60 1012.09 1012.55 1012.96 1013.28 1013.51 1013.62 1013.63 1013.53 1013.33 1013.05 1012.70 1012.29 1011.84 1011.34 1010.81 1010.25 1009.67 1009.07 1008.47 1007.87
1003.36 1003.46 1003.70 1004.05 1004.50 1005.02 1005.57 1006.13 1006.68 1007.20 1007.68 1008.11 1008.49 1008.83 1009.16 1009.47 1009.79 1010.13 1010.51 1010.93 1011.37 1011.84 1012.31 1012.76 1013.16 1013.50 1013.76 1013.91 1013.96 1013.90 1013.75 1013.51 1013.19 1012.81 1012.38 1011.90 1011.38 1010.83 1010.24 1009.62 1008.99 1008.34 1007.68
1002.73 1002.86 1003.15 1003.57 1004.10 1004.70 1005.34 1005.99 1006.63 1007.24 1007.81 1008.33 1008.79 1009.22 1009.62 1010.01 1010.40 1010.80 1011.22 1011.65 1012.10 1012.54 1012.97 1013.36 1013.70 1013.96 1014.14 1014.22 1014.20 1014.08 1013.88 1013.60 1013.25 1012.84 1012.38 1011.88 1011.34 1010.76 1010.15 1009.50 1008.81 1008.11 1007.40
1002.47 1002.60 1002.89 1003.33 1003.89 1004.53 1005.21 1005.92 1006.62 1007.30 1007.94 1008.53 1009.08 1009.59 1010.06 1010.52 1010.97 1011.41 1011.86 1012.30 1012.73 1013.14 1013.52 1013.85 1014.11 1014.30 1014.41 1014.41 1014.33 1014.17 1013.92 1013.61 1013.23 1012.80 1012.32 1011.80 1011.23 1010.61 1009.96 1009.26 1008.53 1007.77 1006.99
1002.67 1002.76 1003.03 1003.45 1003.98 1004.61 1005.30 1006.02 1006.75 1007.46 1008.13 1008.78 1009.38 1009.94 1010.47 1010.97 1011.45 1011.92 1012.37 1012.79 1013.20 1013.56 1013.89 1014.15 1014.35 1014.48 1014.52 1014.48 1014.36 1014.16 1013.89 1013.56 1013.16 1012.71 1012.21 1011.65 1011.05 1010.39 1009.68 1008.93 1008.13 1007.30 1006.46
1003.30 1003.35 1003.57 1003.94 1004.43 1005.01 1005.66 1006.35 1007.05 1007.75 1008.43 1009.08 1009.69 1010.27 1010.82 1011.33 1011.81 1012.26 1012.69 1013.08 1013.44 1013.76 1014.03 1014.24 1014.39 1014.47 1014.48 1014.42 1014.28 1014.07 1013.80 1013.46 1013.06 1012.59 1012.07 1011.48 1010.84 1010.14 1009.37 1008.56 1007.70 1006.81 1005.91
1004.26 1004.28 1004.45 1004.74 1005.16 1005.67 1006.25 1006.87 1007.51 1008.16 1008.80 1009.41 1010.00 1010.55 1011.06 1011.55 1011.99 1012.41 1012.79 1013.13 1013.44 1013.70 1013.93 1014.10 1014.22 1014.28 1014.29 1014.23 1014.10 1013.91 1013.66 1013.33 1012.94 1012.48 1011.94 1011.33 1010.65 1009.91 1009.10 1008.23 1007.33 1006.39 1005.45
1005.40 1005.39 1005.51 1005.74 1006.07 1006.49 1006.97 1007.50 1008.05 1008.62 1009.18 1009.72 1010.24 1010.72 1011.18 1011.59 1011.98 1012.33 1012.65 1012.93 1013.19 1013.41 1013.60 1013.76 1013.87 1013.95 1013.97 1013.94 1013.85 1013.70 1013.49 1013.20 1012.83 1012.38 1011.85 1011.23 1010.54 1009.77 1008.93 1008.04 1007.11 1006.16 1005.21
Thickness
5789 5786 5783 5780 5778 5775 5772 5770 5767 5765 5762 5759 5756 5753 5751 5748 5745 5742 5739 5737 5734 5731 5730 5727 5725 5724 5721 5719 5716 5713 5709 5705 5697 5694 5692 5690 5687 5685 5682 5681 5679 5677 5675
5790 5787 5783 5780 5777 5774 5771 5769 5767 5764 5761 5758 5755 5751 5748 5745 5743 5739 5736 5734 5731 5728 5726 5724 5721 5720 5717 5715 5712 5709 5706 5703 5697 5689 5686 5684 5681 5679 5677 5674 5672 5670 5668
5791 5786 5782 5779 5776 5773 5770 5768 5766 5763 5759 5756 5752 5748 5745 5742 5739 5736 5733 5730 5727 5725 5722 5720 5717 5715 5712 5710 5708 5705 5702 5699 5694 5688 5682 5679 5676 5674 5670 5668 5666 5663 5661
5791 5786 5781 5778 5775 5772 5770 5767 5764 5761 5757 5753 5750 5746 5743 5740 5736 5733 5730 5727 5724 5721 5719 5716 5714 5711 5708 5706 5703 5700 5697 5693 5689 5684 5678 5674 5670 5668 5664 5660 5657 5655 5653
5790 5785 5781 5778 5775 5772 5768 5765 5761 5758 5755 5751 5747 5743 5740 5736 5733 5730 5727 5724 5720 5717 5715 5712 5710 5708 5705 5702 5699 5695 5692 5687 5683 5678 5672 5668 5664 5661 5658 5655 5651 5648 5645
5790 5785 5781 5777 5773 5770 5766 5762 5758 5755 5751 5748 5744 5740 5736 5734 5731 5728 5724 5720 5717 5713 5710 5707 5705 5703 5701 5698 5695 5692 5688 5683 5677 5672 5668 5664 5660 5657 5653 5650 5644 5640 5637
5789 5785 5781 5776 5771 5768 5765 5760 5756 5752 5748 5744 5740 5736 5732 5730 5727 5724 5721 5717 5713 5709 5706 5703 5701 5698 5695 5692 5689 5686 5682 5679 5676 5670 5664 5660 5656 5653 5649 5644 5640 5636 5633
5785 5782 5779 5774 5770 5766 5762 5757 5753 5749 5744 5740 5736 5733 5729 5726 5723 5719 5716 5712 5708 5704 5701 5698 5694 5691 5689 5685 5681 5677 5674 5671 5669 5665 5661 5658 5654 5650 5645 5641 5636 5632 5628
5781 5779 5776 5772 5767 5763 5759 5755 5751 5746 5741 5737 5733 5729 5724 5721 5718 5714 5710 5705 5701 5698 5695 5692 5689 5685 5683 5679 5674 5669 5666 5664 5662 5659 5656 5653 5649 5645 5640 5634 5628 5623 5618
5777 5774 5773 5769 5765 5760 5757 5753 5748 5743 5737 5733 5728 5724 5720 5716 5713 5709 5705 5700 5694 5690 5687 5685 5683 5679 5676 5672 5667 5663 5658 5655 5654 5652 5648 5645 5642 5638 5634 5629 5624 5617 5612
5774 5771 5768 5764 5761 5757 5753 5748 5744 5739 5733 5728 5722 5718 5714 5711 5707 5703 5699 5694 5689 5684 5681 5678 5675 5673 5669 5665 5661 5657 5653 5650 5646 5642 5639 5636 5633 5630 5627 5623 5619 5614 5608
5767 5764 5761 5758 5755 5752 5746 5742 5738 5733 5726 5721 5716 5711 5708 5703 5700 5696 5692 5688 5684 5679 5675 5672 5669 5666 5662 5659 5654 5651 5647 5643 5638 5634 5630 5627 5624 5622 5619 5616 5613 5610 5606
5759 5755 5752 5749 5747 5743 5739 5734 5730 5725 5720 5715 5710 5705 5700 5696 5692 5689 5685 5681 5677 5673 5669 5666 5661 5658 5654 5651 5647 5644 5640 5635 5630 5626 5623 5620 5619 5616 5613 5609 5606 5603 5599
5750 5746 5743 5740 5737 5734 5730 5726 5722 5717 5713 5709 5704 5699 5694 5690 5686 5681 5678 5673 5669 5664 5660 5657 5653 5649 5646 5643 5639 5636 5632 5628 5624 5620 5617 5614 5612 5608 5605 5601 5597 5594 5590
5741 5738 5735 5731 5728 5724 5720 5717 5714 5711 5708 5703 5699 5694 5688 5683 5681 5676 5670 5665 5662 5657 5652 5647 5643 5639 5636 5633 5630 5627 5624 5621 5618 5614 5610 5607 5603 5600 5597 5594 5590 5586 5582
5731 5729 5726 5722 5720 5715 5710 5705 5703 5701 5699 5697 5693 5688 5684 5679 5674 5669 5664 5659 5655 5650 5645 5640 5636 5632 5629 5627 5623 5620 5617 5614 5612 5608 5604 5601 5597 5594 5590 5587 5583 5579 5575
5724 5721 5717 5714 5710 5706 5702 5698 5693 5689 5688 5685 5683 5680 5676 5671 5666 5661 5656 5652 5647 5642 5637 5634 5630 5627 5624 5621 5618 5614 5612 5609 5605 5602 5598 5594 5591 5587 5584 5580 5576 5573 5569
5716 5713 5710 5706 5702 5699 5696 5692 5688 5683 5678 5674 5671 5669 5666 5661 5656 5651 5646 5642 5636 5632 5629 5627 5624 5621 5618 5615 5611 5608 5605 5602 5598 5595 5592 5588 5585 5581 5577 5574 5571 5567 5564
5707 5704 5702 5699 5696 5692 5688 5683 5680 5676 5671 5666 5662 5657 5654 5649 5645 5640 5637 5633 5630 5626 5623 5620 5618 5615 5612 5609 5605 5602 5598 5595 5592 5589 5585 5582 5579 5575 5572 5569 5566 5563 5559
5699 5697 5694 5690 5686 5683 5679 5675 5671 5667 5663 5659 5655 5650 5644 5639 5634 5631 5627 5625 5623 5620 5617 5614 5611 5608 5605 5602 5599 5595 5592 5588 5585 5582 5579 5576 5573 5569 5566 5563 5560 5557 5553
5689 5687 5685 5681 5677 5674 5671 5667 5664 5660 5655 5651 5648 5645 5640 5635 5631 5627 5623 5620 5617 5614 5611 5607 5604 5601 5598 5596 5593 5589 5586 5583 5579 5576 5573 5570 5567 5564 5562 5559 5555 5552 5548
5679 5677 5675 5672 5669 5667 5664 5660 5656 5653 5649 5645 5641 5637 5632 5629 5625 5622 5619 5616 5613 5610 5607 5603 5599 5596 5593 5590 5586 5583 5579 5576 5574 5570 5567 5565 5562 5560 5557 5553 5550 5546 5543
5669 5667 5664 5662 5660 5658 5655 5652 5648 5644 5641 5637 5634 5629 5625 5622 5619 5616 5614 5611 5608 5605 5602 5598 5594 5590 5587 5584 5581 5577 5574 5571 5568 5566 5562 5559 5556 5553 5550 5547 5544 5540 5537
5659 5657 5654 5652 5650 5648 5645 5642 5640 5636 5633 5630 5626 5623 5619 5616 5613 5611 5608 5606 5602 5599 5596 5592 5589 5585 5582 5577 5574 5571 5568 5566 5563 5560 5556 5553 5550 5547 5544 5540 5538 5535 5532
5649 5647 5645 5642 5640 5638 5635 5633 5630 5628 5625 5622 5620 5617 5613 5610 5607 5605 5602 5599 5596 5593 5589 5586 5582 5578 5575 5571 5567 5564 5562 5559 5556 5553 5550 5547 5544 5541 5538 5535 5531 5528 5526
5640 5638 5636 5633 5631 5629 5627 5624 5622 5619 5617 5615 5613 5610 5606 5603 5601 5598 5595 5592 5589 5586 5582 5579 5575 5572 5568 5565 5562 5558 5555 5552 5549 5546 5543 5540 5538 5535 5532 5529 5526 5523 5520